Reflectivity
-20 -20 -20 -20 -20 -20 -20 -20 -20 -20 -20 -20 -20 -20 -20 -20 -20 -20 -20 -20 -20 -20 -20 -20 -20 -20 -20 -20 -20 -20 -20 -20 -20 -20 -20 -20 -20 -1 15 32 3 -13 4 -20
-20 -20 -20 -20 -20 -20 -20 -20 -20 -20 -20 -20 -20 -20 -20 -20 -20 -20 -20 -20 -20 -20 -20 -20 -20 -20 -20 -20 -20 -20 -20 -20 -20 -20 -20 -20 -14 5 9 28 28 5 12 -13
-20 -20 -20 -20 -20 -20 -20 -20 -20 -20 -20 -20 -20 -20 -20 -20 -20 -20 -20 -20 -20 -20 -20 -20 -20 -20 -20 -20 -20 -20 -20 -20 -20 -20 -20 -20 -20 -12 -6 23 18 12 4 8
-20 -20 -20 -20 -20 -20 -20 -20 -20 -20 -20 -20 -20 -20 -20 -20 -20 -20 -20 -20 -20 -20 -20 -20 -20 -20 -20 -20 -20 -20 -20 -20 -20 -20 -20 -20 -20 -10 -4 -8 0 17 13 22
-20 -20 -20 -20 -20 -20 -20 -20 -20 -20 -20 -20 -20 -20 -20 -20 -20 -20 -20 -20 -20 -20 -20 -20 -20 -20 -20 -20 -20 -20 -20 -20 -20 -20 -20 -20 -20 -20 -14 -3 3 -12 22 34
-20 -20 -20 -20 -20 -20 -20 -20 -20 -20 -20 -20 -20 -20 -20 -20 -20 -20 -20 -20 -20 -20 -20 -20 -20 -20 -20 -20 -20 -20 -20 -20 -20 -20 -20 -20 -20 -20 -20 -20 -20 -4 11 6
-20 -20 -20 -20 -20 -20 -20 -20 -20 -20 -20 -20 -20 -20 -20 -20 -20 -20 -20 -20 -20 -20 -20 -20 -20 -20 -20 -20 -20 -20 -20 -20 -20 -20 -20 -20 -20 -20 -20 -20 -20 -0 -11 -6
-20 -20 -20 -20 -20 -20 -20 -20 -20 -20 -20 -20 -20 -20 -20 -20 -20 -20 -20 -20 -20 -20 -20 -20 -20 -20 -20 -20 -20 -20 -20 -20 -20 -20 -20 -20 -20 -20 -20 -20 -20 -10 -5 -5
-20 -20 -20 -20 -20 -20 -20 -20 -20 -20 -20 -20 -20 -20 -20 -20 -20 -20 -20 -20 -20 -20 -20 -20 -20 -20 -20 -20 -20 -20 -20 -20 -20 -20 -20 -20 -20 -20 -20 -20 -20 -20 -12 -20
-20 -20 -20 -20 -20 -20 -20 -20 -20 -20 -20 -20 -20 -20 -20 -20 -20 -20 -20 -20 -20 -20 -20 -20 -20 -20 -20 -20 -20 -20 -20 -20 -20 -20 -20 -20 -20 -20 -20 -20 -20 -19 -11 -20
-20 -20 -20 -20 -20 -20 -20 -20 -20 -20 -20 -20 -20 -20 -20 -20 -20 -20 -20 -20 -20 -20 -20 -20 -20 -20 -20 -20 -20 -20 -20 -20 -20 -20 -20 -20 -20 -20 -20 -20 -20 -20 -20 -7
-20 -12 -20 -20 -20 -20 -20 -20 -20 -20 -20 -20 -20 -20 -20 -20 -20 -20 -20 -20 -20 -20 -20 -20 -20 -20 -20 -20 -20 -20 -20 -20 -20 -20 -20 -20 -20 -20 -20 -20 -20 -20 -20 -20
-20 -20 -20 -20 -20 -20 -20 -20 -20 -20 -20 -20 -20 -20 -20 -20 -20 -20 -20 -20 -20 -20 -20 -20 -20 -20 -20 -20 -20 -20 -20 -20 -20 -20 -20 -20 -20 -20 -20 -20 -20 -20 -20 -20
-20 -20 -20 -20 -20 -20 -20 -20 -20 -20 -20 -20 -20 -20 -20 -20 -20 -20 -20 -20 -20 -20 -20 -20 -20 -20 -20 -20 -20 -20 -20 -20 -20 -20 -20 -20 -20 -20 -20 -20 -20 -20 -20 -20
-20 -20 -20 -20 -20 -20 -20 -20 -20 -20 -20 -20 -20 -20 -20 -20 -20 -20 -20 -20 -20 -20 -20 -20 -20 -20 -20 -20 -20 -20 -20 -20 -20 -20 -20 -20 -20 -20 -20 -20 -20 -20 -20 -20
-20 -20 -20 -20 -20 -20 -20 -20 -20 -20 -20 -20 -20 -20 -20 -20 -20 -20 -20 -20 -20 -20 -20 -20 -20 -20 -20 -20 -20 -20 -20 -20 -20 -20 -20 -20 -20 -20 -20 -20 -20 -20 -20 -20
-20 -20 -20 -20 -20 -20 -20 -20 -20 -20 -20 -20 -20 -20 -20 -20 -20 -20 -20 -20 -20 -20 -20 -20 -20 -20 -20 -20 -20 -20 -20 -20 -20 -20 -20 -20 -20 -20 -20 -20 -20 -20 -20 -20
-20 -20 -20 -20 -20 -20 -20 -20 -20 -20 -20 -20 -20 -20 -20 -20 -20 -20 -20 -20 -20 -20 -20 -20 -20 -20 -20 -20 -20 -20 -20 -20 -20 -20 -20 -20 -20 -20 -20 -20 -20 -20 -20 -20
-20 -20 -20 -20 -20 -20 -20 -20 -20 -20 -20 -20 -20 -20 -20 -20 -20 -20 -20 -20 -20 -20 -20 -20 -20 -20 -20 -20 -20 -20 -20 -20 -20 -20 -20 -20 -20 -20 -20 -20 -20 -20 -20 -20
-20 -20 -20 -20 -20 -20 -20 -20 -20 -20 -20 -20 -20 -20 -20 -20 -20 -20 -20 -20 -20 -20 -20 -20 -20 -20 -20 -20 -20 -20 -20 -20 -20 -20 -20 -20 -20 -20 -20 -20 -20 -20 -20 -20
-20 -12 -13 -20 -14 -20 -20 -20 -20 -20 -20 -20 -20 -20 -20 -20 -20 -20 -20 -20 -20 -20 -20 -20 -20 -20 -20 -20 -20 -20 -20 -20 -20 -20 -20 -20 -20 -20 -20 -20 -20 -20 -20 -20
-20 -20 -19 -7 -2 -20 -20 -20 -20 -20 -20 -20 -20 -20 -20 -20 -20 -20 -20 -20 -20 -20 -20 -20 -20 -20 -20 -20 -20 -20 -20 -20 -20 -20 -20 -20 -20 -20 -20 -20 -20 -20 -20 -16
-20 -20 -20 -20 -20 -20 -20 -20 -20 -20 -20 -20 -20 -20 -20 -20 -20 -20 -20 -20 -20 -20 -20 -20 -20 -20 -20 -20 -20 -20 -20 -20 -20 -20 -20 -20 -20 -20 -20 -20 -20 -20 -20 -20
-20 -20 -20 -20 -20 -20 -20 -20 -20 -20 -20 -20 -20 -20 -20 -20 -20 -20 -20 -20 -20 -20 -20 -20 -20 -20 -20 -20 -20 -20 -20 -20 -20 -20 -20 -20 -20 -20 -20 -20 -20 -20 -20 -9
-20 -20 -20 -20 -20 -20 -20 -20 -20 -20 -20 -20 -20 -20 -20 -20 -20 -20 -20 -20 -20 -20 -20 -20 -20 -20 -20 -20 -20 -20 -20 -20 -20 -20 -20 -20 -20 -20 -20 -20 -20 -20 -20 -12
-20 -20 -20 -20 -20 -20 -20 -20 -20 -20 -20 -20 -20 -20 -20 -20 -20 -20 -20 -20 -20 -20 -20 -20 -13 -20 -20 -20 -20 -20 -20 -20 -20 -20 -20 -20 -20 -20 -20 -20 -20 -20 -20 -20
Wind_Speed
21 16 15 15 13 11 10 9 9 7 6 2 5 7 6 6 7 9 11 13 14 14 15 16 16 16 17 17 18 18 17 18 14 11 12 6 4 9 6 8 11 13 15 15
13 20 11 9 8 9 7 8 7 4 6 3 2 6 5 5 6 8 10 11 13 15 16 18 19 18 18 18 18 19 18 17 14 12 10 6 8 7 7 9 9 12 15 14
15 7 5 8 7 8 11 8 4 4 3 3 1 6 3 4 3 6 9 10 12 13 16 17 17 18 18 19 19 17 18 18 15 17 11 11 7 6 6 4 7 10 15 16
13 7 6 7 10 6 5 6 1 2 6 2 4 2 5 2 3 8 10 11 13 14 14 14 16 17 16 16 16 18 17 16 15 17 14 16 10 11 10 7 8 13 13 15
6 9 9 8 6 8 6 4 1 2 3 7 5 6 10 3 2 5 8 11 13 14 14 15 14 14 15 15 15 16 17 16 16 16 15 13 13 11 10 10 11 11 11 13
11 4 9 5 1 5 5 4 5 4 3 4 4 7 9 2 4 3 3 9 12 14 14 13 12 12 13 14 14 14 17 17 16 16 16 15 15 15 12 13 12 9 8 8
7 7 3 7 2 1 2 4 1 3 3 3 2 6 8 3 5 7 8 9 12 15 14 14 13 11 11 14 14 14 16 16 17 16 16 15 15 15 14 12 11 14 9 10
3 7 6 6 5 4 7 5 3 4 3 2 3 2 5 6 7 7 10 12 16 16 15 14 10 10 11 12 13 14 15 16 16 17 17 15 15 11 11 13 11 10 10 9
4 6 4 7 7 5 3 4 3 1 0 5 2 3 5 2 4 7 11 15 17 15 14 12 11 9 10 11 12 12 14 15 16 16 15 15 14 15 13 15 12 10 13 12
2 5 1 3 2 9 5 4 3 2 1 4 4 5 1 3 7 10 12 12 11 12 12 12 11 9 9 10 11 11 13 14 15 15 14 14 15 15 14 13 14 14 13 14
5 1 6 3 2 2 5 4 3 1 3 3 5 2 3 2 6 10 10 10 10 10 11 12 10 9 9 9 10 11 13 14 15 15 14 15 15 15 14 14 13 14 15 14
3 2 4 3 2 2 1 3 5 3 3 3 5 5 6 1 5 6 7 7 9 9 10 11 8 8 10 8 9 11 13 14 14 14 15 14 15 15 15 15 15 15 15 15
6 2 4 6 5 3 5 3 4 3 2 9 4 2 8 4 6 6 7 7 9 10 10 9 7 8 10 9 9 10 11 13 13 14 14 14 14 15 16 16 16 16 16 15
3 4 3 3 3 4 5 7 9 6 5 5 12 13 9 10 8 9 8 8 9 11 10 9 8 8 9 8 8 9 11 12 13 14 14 14 14 14 14 15 15 15 16 15
2 3 2 6 9 10 13 10 14 15 15 10 8 12 12 11 11 12 9 10 10 11 10 10 9 8 9 9 8 8 9 11 12 13 14 13 13 14 14 14 15 15 15 15
5 2 2 4 6 11 17 17 17 20 23 24 22 26 20 16 13 12 12 11 11 11 11 11 10 11 11 10 8 8 9 10 10 11 12 13 13 13 13 14 14 14 15 15
7 5 4 3 2 9 13 18 19 18 17 15 20 22 14 14 13 11 12 11 11 12 11 11 11 11 10 8 7 9 10 10 10 11 11 12 13 14 14 14 14 14 14 15
7 7 3 2 4 6 4 2 3 11 14 15 19 18 16 15 13 11 12 12 12 13 10 10 9 11 10 8 8 8 10 10 10 11 11 12 13 13 14 14 14 14 12 14
7 7 3 4 5 13 10 5 10 9 12 9 16 17 17 16 13 14 15 12 11 11 8 9 8 8 9 8 8 9 11 10 11 11 12 12 12 13 13 14 13 13 12 13
8 8 5 3 5 5 5 3 1 2 12 3 8 12 13 12 11 11 7 6 9 10 10 9 9 8 8 8 8 10 11 11 11 11 12 12 11 12 13 13 12 11 11 13
7 6 11 9 6 8 5 7 1 6 3 2 2 5 8 10 11 14 14 14 14 13 13 11 9 9 9 7 7 10 11 11 9 10 11 12 11 12 11 12 12 11 12 12
10 9 6 7 6 8 5 2 6 8 4 6 9 10 11 14 16 18 18 18 18 18 16 14 11 10 7 7 7 10 10 8 9 10 11 11 11 11 9 13 12 12 12 12
6 6 3 9 5 3 1 10 9 10 13 16 17 16 15 18 20 21 19 20 19 20 17 13 11 10 7 7 7 9 8 8 9 11 11 11 12 12 11 12 12 11 11 10
7 5 5 3 7 9 11 13 14 15 13 15 15 19 20 21 21 20 19 17 16 17 15 13 12 11 9 7 7 8 8 9 10 11 12 11 12 11 12 9 9 9 9 10
2 5 8 11 12 9 10 8 17 18 20 20 19 20 20 21 22 21 19 19 17 17 15 12 11 9 8 7 7 8 8 9 11 11 11 11 10 12 12 11 9 10 11 9
7 7 6 4 11 10 15 19 22 20 20 21 20 21 20 19 20 20 19 18 17 16 13 10 10 8 8 7 7 8 8 9 11 11 10 9 10 10 11 11 12 6 11 14
Wind_Direction
47 80 61 60 57 80 101 106 115 87 30 305 77 97 90 69 46 41 35 30 28 26 22 14 15 15 11 12 3 1 359 359 351 353 354 344 329 325 248 245 224 217 229 229
89 59 66 69 70 91 96 106 91 98 27 275 64 107 92 57 58 43 25 35 26 18 15 14 9 12 11 12 8 1 358 359 357 352 341 330 308 284 283 251 224 222 221 225
80 79 76 78 83 102 63 51 57 26 24 80 192 157 143 86 75 28 29 26 31 26 12 9 9 9 8 11 7 3 0 358 1 354 344 340 334 330 321 332 281 225 228 222
70 68 66 83 67 334 96 15 292 233 242 82 307 98 169 77 90 41 35 27 21 16 16 11 3 4 9 9 7 1 358 2 2 356 350 347 343 337 330 318 301 318 220 227
98 72 47 61 38 351 47 321 286 209 158 188 64 252 102 211 218 33 35 27 19 14 7 5 3 358 356 1 1 359 357 360 3 0 356 347 346 346 330 324 321 327 342 247
98 87 38 34 68 14 329 179 152 172 219 206 86 325 123 35 344 285 345 3 2 2 356 348 357 352 353 352 354 357 356 359 359 359 358 353 346 337 339 340 333 337 326 317
122 64 82 18 226 331 52 202 176 204 205 34 85 274 40 313 274 291 317 325 339 342 344 333 343 348 349 352 349 349 354 354 357 356 355 355 350 340 335 344 335 334 336 340
171 161 19 7 31 8 43 11 23 284 295 4 190 237 91 306 278 275 281 302 323 329 328 326 332 335 344 353 353 350 349 349 355 354 353 349 351 348 339 341 337 327 333 325
140 107 120 57 53 314 62 59 17 136 70 260 149 134 225 15 322 311 326 323 328 331 334 325 329 336 341 353 358 351 348 349 351 352 349 348 346 348 345 340 338 335 329 326
113 122 119 98 312 58 27 89 188 76 250 260 215 252 273 20 345 342 338 343 341 342 340 341 332 333 336 345 353 352 351 350 348 349 348 346 342 342 341 341 343 337 331 328
137 241 137 193 203 150 157 152 105 129 297 291 301 153 122 35 348 344 346 348 343 340 338 334 329 333 327 337 350 353 351 348 347 347 346 343 341 340 339 340 342 341 333 334
68 81 142 87 123 290 285 197 198 247 150 263 306 291 137 85 335 338 341 348 346 340 339 338 336 330 340 339 345 351 351 348 345 342 342 341 338 338 338 336 337 340 337 332
167 147 144 163 162 181 241 171 85 101 266 223 239 253 170 205 283 299 307 328 330 329 334 335 324 327 336 332 338 346 351 347 342 340 339 339 338 337 336 336 335 336 335 335
148 178 255 311 63 115 204 184 197 198 210 238 227 273 228 277 294 303 293 299 319 317 319 319 307 313 323 321 323 334 342 345 341 339 339 338 337 335 333 332 333 336 336 331
203 213 229 259 252 243 258 217 203 209 219 230 270 267 267 281 296 302 298 296 295 306 320 321 314 313 315 318 309 321 334 337 338 332 332 336 335 329 330 332 330 333 335 332
168 218 241 268 256 261 266 258 237 229 240 246 256 272 278 281 278 276 274 279 287 302 311 321 313 310 311 315 306 322 330 333 329 330 328 329 330 330 332 330 327 331 334 335
174 169 185 253 318 300 270 247 234 235 238 239 246 253 273 276 258 260 275 280 291 298 297 310 318 316 314 309 308 307 323 326 327 327 328 328 327 328 332 329 327 332 335 334
189 170 185 277 256 240 74 168 242 243 256 249 245 259 257 265 261 289 274 268 279 290 281 300 313 317 313 308 302 315 316 319 320 322 325 326 326 323 327 327 329 331 336 332
199 186 204 259 242 300 274 202 216 219 280 229 251 253 259 260 267 276 261 259 282 288 287 289 299 303 298 300 309 306 307 316 317 322 323 324 322 319 321 323 327 326 328 320
205 232 225 190 253 267 84 113 167 248 271 23 243 253 264 278 254 264 293 308 275 267 267 267 283 292 282 285 297 298 306 316 314 327 321 317 316 313 317 319 319 322 319 317
167 205 220 219 265 278 305 181 285 253 10 20 263 284 293 275 275 301 306 286 274 275 278 267 255 268 279 277 284 293 304 309 328 315 313 311 311 313 314 312 315 318 317 318
175 175 193 202 233 254 176 165 232 15 335 317 301 295 291 292 290 287 282 280 280 278 278 251 245 259 261 270 282 293 299 319 316 313 306 307 309 311 306 312 313 316 320 315
218 216 198 203 224 69 201 293 304 307 299 299 296 296 293 290 289 287 285 286 283 280 281 263 247 256 248 255 275 287 298 305 308 303 303 307 307 305 311 308 313 315 317 311
218 203 226 202 251 272 302 303 295 298 298 302 294 290 291 289 287 281 280 278 283 282 275 265 246 245 250 257 264 275 293 299 302 300 305 306 304 317 302 311 303 304 308 307
13 172 244 265 279 313 288 319 315 309 302 297 294 291 288 289 285 283 282 277 279 284 278 257 242 241 251 259 263 276 287 296 296 298 299 299 299 307 306 303 303 304 302 300
216 250 245 278 352 326 310 317 311 305 301 297 297 293 290 288 284 283 278 276 279 277 269 235 235 240 250 250 263 278 289 295 296 295 295 300 300 297 295 300 302 279 253 261